Waarnemingen

Advertentie
Mijn weer
Albi, Frankrijk (7632): temperatuur & dauwpunt: 09.10.2019 21:00:00 - 15.10.2019 21:00:00 (CEST)Albi, Frankrijk (7632): temperatuur 5cm: 09.10.2019 21:00:00 - 15.10.2019 21:00:00 (CEST)Albi, Frankrijk (7632): temperatuur -20cm & temperatuur -100cm: 09.10.2019 21:00:00 - 15.10.2019 21:00:00 (CEST)Albi, Frankrijk (7632): windsnelheid & windstoten: 09.10.2019 21:00:00 - 15.10.2019 21:00:00 (CEST)Albi, Frankrijk (7632): windrichting: 09.10.2019 21:00:00 - 15.10.2019 21:00:00 (CEST)Albi, Frankrijk (7632): luchtdruk: 09.10.2019 21:00:00 - 15.10.2019 21:00:00 (CEST)Albi, Frankrijk (7632): zicht: 09.10.2019 21:00:00 - 15.10.2019 21:00:00 (CEST)Albi, Frankrijk (7632): Zonneschijnduur: 09.10.2019 21:00:00 - 15.10.2019 21:00:00 (CEST)Albi, Frankrijk (7632): neerslag: 09.10.2019 21:00:00 - 15.10.2019 21:00:00 (CEST)
Datum & Tijd tt [°C] td [°C] tt 5cm [°C] tt -20cm [°C] tt -100cm [°C] ff [km/u] ff [kn] fx [km/u] fx [kn] dd ppp [hPa] vv [km] sd [min] rr [mm]
15.10.2019 21:00:00 - - - - - - - - - - - - - -
15.10.2019 20:00:00 - - - - - - - - - - - - - -
15.10.2019 19:00:00 - - - - - - - - - - - - - -
15.10.2019 18:00:00 - - - - - - - - - - - - - -
15.10.2019 17:00:00 - - - - - - - - - - - - - -
15.10.2019 16:00:00 - - - - - - - - - - - - - -
15.10.2019 15:00:00 - - - - - - - - - - - - - -
15.10.2019 14:00:00 15,1 10,5 12,3 17,9 18,5 20 11 46 25 W 1016,7 20 22 0,4
15.10.2019 13:00:00 14,4 9,6 14,7 17,9 18,5 22 12 37 20 WZW 1016,8 20 14 0,0
15.10.2019 12:00:00 13,3 10,8 11,8 18,0 18,5 23 13 42 23 WZW 1016,9 20 12 0,0
15.10.2019 11:00:00 11,6 9,7 11,1 18,1 18,5 16 9 30 16 ZW 1016,5 20 0 0,4
15.10.2019 10:00:00 11,4 9,5 10,6 18,1 18,5 16 9 27 15 ZW 1015,9 20 0 0,4
15.10.2019 09:00:00 11,5 9,4 10,9 18,2 18,5 16 9 25 13 ZZW 1015,0 20 3 0,0
15.10.2019 08:00:00 11,6 9,5 11,4 18,2 18,5 13 7 33 18 ZW 1014,0 20 0 0,0
15.10.2019 07:00:00 12,0 10,6 11,7 18,2 18,5 16 9 39 21 WZW 1013,6 20 0 0,4
15.10.2019 06:00:00 12,6 11,2 12,2 18,2 18,5 22 12 39 21 ZW 1012,7 11 0 2,2
15.10.2019 05:00:00 13,4 11,6 12,8 18,2 18,5 12 7 23 12 ZW 1012,2 20 0 0,0
15.10.2019 04:00:00 13,8 12,0 13,3 18,3 18,5 10 5 24 13 WZW 1011,4 20 0 0,2
15.10.2019 03:00:00 14,1 12,5 13,7 18,3 18,5 7 4 22 12 ZZW 1011,8 20 0 0,0
15.10.2019 02:00:00 14,9 12,4 14,2 18,3 18,5 16 8 24 13 W 1011,2 20 0 0,2
15.10.2019 01:00:00 15,2 13,4 14,7 18,3 18,5 12 6 20 11 W 1009,9 20 0 0,0
15.10.2019 00:00:00 16,5 14,7 15,8 18,2 18,5 8 4 38 20 WZW 1009,3 6 0 5,3
14.10.2019 23:00:00 20,7 15,0 20,5 18,2 18,5 24 13 53 28 WZW 1007,7 20 0 0,0
14.10.2019 22:00:00 21,8 14,9 18,7 18,2 18,5 23 13 48 26 OZO 1006,2 20 0 0,0
14.10.2019 21:00:00 20,1 15,1 19,3 18,2 18,5 19 10 34 19 O 1007,5 20 0 0,0
14.10.2019 20:00:00 20,8 15,3 18,0 18,1 18,5 24 13 44 24 O 1007,9 20 0 0,2
14.10.2019 19:00:00 22,4 14,5 22,0 18,1 18,4 18 10 40 21 OZO 1008,6 20 0 0,0
14.10.2019 18:00:00 22,7 14,0 21,4 18,1 18,5 24 13 41 22 OZO 1008,9 20 0 0,0
14.10.2019 17:00:00 23,3 13,7 23,3 18,1 18,4 18 10 44 24 OZO 1009,2 20 0 0,0
14.10.2019 16:00:00 24,1 13,3 24,9 18,0 18,5 31 17 49 26 OZO 1008,8 20 0 0,0
14.10.2019 15:00:00 24,1 13,6 24,6 18,0 18,4 24 13 48 26 OZO 1009,2 20 0 0,0
14.10.2019 14:00:00 23,9 13,4 24,3 18,0 18,5 27 14 53 29 OZO 1009,7 20 0 0,0
14.10.2019 13:00:00 24,5 13,7 25,8 18,0 18,4 27 15 50 27 OZO 1010,5 20 13 0,0
14.10.2019 12:00:00 25,1 13,3 26,2 18,0 18,4 31 17 54 29 OZO 1010,8 19 60 0,0
14.10.2019 11:00:00 24,1 13,9 24,0 18,0 18,4 28 15 52 28 OZO 1011,5 20 60 0,0
14.10.2019 10:00:00 22,4 13,7 20,8 18,0 18,4 29 16 47 25 O 1011,8 20 60 0,0
14.10.2019 09:00:00 19,9 13,4 14,4 18,1 18,4 12 6 26 14 O 1012,2 20 34 0,0
14.10.2019 08:00:00 17,6 12,7 14,6 18,1 18,4 7 4 11 6 ONO 1012,8 20 0 0,0
14.10.2019 07:00:00 18,1 12,8 15,9 18,1 18,4 7 4 24 13 O 1013,2 20 0 0,0
14.10.2019 06:00:00 19,1 13,1 17,7 18,1 18,4 14 8 27 15 O 1012,9 20 0 0,0
14.10.2019 05:00:00 19,4 12,9 17,5 18,1 18,4 13 7 32 17 O 1012,9 20 0 0,0
14.10.2019 04:00:00 19,8 13,0 18,6 18,2 18,5 17 9 36 19 O 1012,9 20 0 0,0
14.10.2019 03:00:00 20,2 13,6 18,7 18,2 18,4 22 12 40 21 O 1013,2 20 0 0,0
14.10.2019 02:00:00 20,0 14,1 17,2 18,1 18,4 11 6 24 13 O 1013,8 20 0 0,0
14.10.2019 01:00:00 19,5 14,3 17,4 18,1 18,4 8 4 18 10 ONO 1014,3 20 0 0,0
14.10.2019 00:00:00 19,2 13,8 18,3 18,1 18,4 9 5 21 12 NNO 1014,7 20 0 0,0
13.10.2019 23:00:00 19,6 14,0 18,4 18,1 18,4 15 8 29 16 O 1014,9 20 0 0,0
13.10.2019 22:00:00 20,0 14,1 18,6 18,0 18,4 14 7 24 13 O 1014,8 20 0 0,0
13.10.2019 21:00:00 20,6 14,5 19,4 18,0 18,4 12 6 33 18 ONO 1014,6 20 0 0,0
13.10.2019 20:00:00 21,0 14,6 20,0 17,9 18,4 16 9 34 18 O 1014,5 20 0 0,0
13.10.2019 19:00:00 22,0 14,4 21,4 17,9 18,4 18 10 41 22 O 1014,3 20 50 0,0
13.10.2019 18:00:00 23,6 14,6 25,2 17,8 18,4 25 13 44 24 OZO 1013,9 20 60 0,0
13.10.2019 17:00:00 24,8 14,3 27,4 17,8 18,5 27 15 50 27 OZO 1013,9 19 60 0,0
13.10.2019 16:00:00 25,7 14,2 27,9 17,7 18,4 25 13 44 24 OZO 1013,9 20 60 0,0
13.10.2019 15:00:00 26,1 13,9 29,9 17,7 18,4 25 13 41 22 OZO 1013,8 20 60 0,0
13.10.2019 14:00:00 26,0 13,8 29,4 17,7 18,4 21 11 42 23 OZO 1014,6 20 60 0,0
13.10.2019 13:00:00 26,0 14,1 28,6 17,7 18,4 26 14 48 26 OZO 1014,8 19 60 0,0
13.10.2019 12:00:00 25,4 14,2 27,3 17,7 18,5 24 13 42 23 OZO 1014,9 20 60 0,0
13.10.2019 11:00:00 24,3 14,4 25,3 17,7 18,4 27 14 44 24 OZO 1014,9 20 60 0,0
13.10.2019 10:00:00 23,2 14,5 20,6 17,7 18,4 18 10 31 17 O 1014,7 20 60 0,0
13.10.2019 09:00:00 18,1 14,4 13,7 17,8 18,5 8 4 13 7 O 1014,7 19 36 0,0
13.10.2019 08:00:00 16,3 13,4 13,7 17,8 18,5 7 4 14 8 O 1014,3 17 0 0,0
13.10.2019 07:00:00 16,2 13,7 12,7 17,8 18,5 5 3 8 5 ONO 1014,3 20 0 0,0
13.10.2019 06:00:00 16,9 13,6 13,8 17,8 18,4 7 4 13 7 ONO 1014,2 20 0 0,0
13.10.2019 05:00:00 17,3 13,4 15,3 17,8 18,4 6 4 13 7 O 1014,5 20 0 0,0
13.10.2019 04:00:00 18,3 13,8 17,1 17,8 18,5 6 4 13 7 NO 1015,2 20 0 0,0
13.10.2019 03:00:00 18,3 13,8 17,0 17,8 18,5 7 4 13 7 O 1015,6 20 0 0,0
13.10.2019 02:00:00 18,7 13,8 17,5 17,8 18,5 6 4 17 9 ONO 1015,7 20 0 0,0
13.10.2019 01:00:00 19,0 13,8 17,4 17,8 18,5 7 4 19 10 ONO 1015,8 20 0 0,0
13.10.2019 00:00:00 19,2 13,8 17,9 17,8 18,5 9 5 19 11 ONO 1016,3 20 0 0,0
12.10.2019 23:00:00 19,5 13,4 18,2 17,8 18,5 9 5 23 12 ONO 1016,4 19 0 0,0
12.10.2019 22:00:00 19,9 13,8 18,8 17,7 18,5 13 7 26 14 ONO 1016,4 20 0 0,0
12.10.2019 21:00:00 20,0 13,9 19,1 17,6 18,5 11 6 23 12 O 1016,2 20 0 0,0
12.10.2019 20:00:00 21,0 14,2 20,0 17,5 18,5 8 5 31 17 O 1016,3 20 0 0,0
12.10.2019 19:00:00 22,7 14,8 22,2 17,4 18,5 16 9 33 18 O 1015,5 17 0 0,0
12.10.2019 18:00:00 24,8 14,9 25,1 17,3 18,5 15 8 27 14 O 1014,9 20 7 0,0
12.10.2019 17:00:00 26,3 14,7 27,9 17,2 18,5 16 9 32 18 OZO 1014,8 19 56 0,0
12.10.2019 16:00:00 27,4 15,4 28,5 17,2 18,5 14 7 23 12 O 1015,1 20 41 0,0
12.10.2019 15:00:00 26,7 15,1 28,9 17,1 18,5 12 7 21 11 ZO 1015,2 20 20 0,0
12.10.2019 14:00:00 26,2 15,6 28,4 17,1 18,5 8 4 18 10 O 1015,6 18 24 0,0
12.10.2019 13:00:00 24,5 15,4 24,9 17,0 18,5 0 0 11 6 N 1016,5 20 0 0,0
12.10.2019 12:00:00 23,0 15,8 23,5 17,1 18,5 8 4 12 7 WZW 1016,5 19 0 0,0
12.10.2019 11:00:00 21,0 16,0 20,5 17,1 18,5 5 3 11 6 W 1016,0 20 0 0,0
12.10.2019 10:00:00 18,9 15,0 17,7 17,1 18,5 6 3 20 11 ONO 1015,2 19 0 0,0
12.10.2019 09:00:00 17,5 14,2 14,4 17,2 18,6 3 2 18 10 OZO 1015,2 20 0 0,0
12.10.2019 08:00:00 15,5 13,2 14,0 17,2 18,6 3 2 9 5 OZO 1016,0 20 0 0,0
12.10.2019 07:00:00 15,3 13,3 11,7 17,2 18,5 6 3 8 5 O 1015,5 20 0 0,0
12.10.2019 06:00:00 13,5 11,7 11,6 17,3 18,6 5 3 10 6 OZO 1015,8 20 0 0,0
12.10.2019 05:00:00 13,1 10,6 10,9 17,4 18,6 7 4 9 5 O 1016,3 20 0 0,0
12.10.2019 04:00:00 12,8 10,3 10,7 17,3 18,6 7 4 11 6 O 1016,8 20 0 0,0
12.10.2019 03:00:00 12,4 10,5 10,0 17,4 18,6 8 4 10 6 O 1017,7 20 0 0,0
12.10.2019 02:00:00 13,3 10,5 10,9 17,4 18,6 4 2 9 5 O 1018,0 20 0 0,0
12.10.2019 01:00:00 14,5 10,7 11,9 17,4 18,6 5 3 10 6 ONO 1018,2 20 0 0,0
12.10.2019 00:00:00 14,3 10,5 12,4 17,4 18,6 7 4 10 5 O 1018,5 20 0 0,0
11.10.2019 23:00:00 14,4 10,2 12,1 17,3 18,6 7 4 11 6 O 1018,5 20 0 0,0
11.10.2019 22:00:00 16,2 10,5 14,1 17,2 18,6 7 4 14 8 O 1018,3 20 0 0,0
11.10.2019 21:00:00 18,2 11,0 15,4 17,2 18,6 8 4 14 8 O 1018,1 20 0 0,0
11.10.2019 20:00:00 19,5 11,0 16,8 17,1 18,6 5 3 23 12 ZO 1017,8 20 0 0,0
11.10.2019 19:00:00 22,9 11,0 22,0 17,0 18,6 15 8 25 13 ZZO 1017,0 20 53 0,0
11.10.2019 18:00:00 25,8 9,6 28,7 16,9 18,6 13 7 22 12 ZO 1016,5 20 60 0,0
11.10.2019 17:00:00 27,3 9,2 32,3 16,8 18,6 10 6 21 11 ZZO 1016,4 20 60 0,0
11.10.2019 16:00:00 27,8 8,6 32,9 16,7 18,6 10 5 18 10 ZZO 1016,6 20 60 0,0
11.10.2019 15:00:00 26,6 10,3 31,8 16,7 18,6 5 3 15 8 NW 1017,3 20 60 0,0
11.10.2019 14:00:00 24,5 10,0 29,1 16,8 18,6 8 4 16 9 NO 1018,4 20 60 0,0
11.10.2019 13:00:00 21,9 9,8 25,5 16,8 18,6 9 5 19 10 ONO 1019,4 20 60 0,0
11.10.2019 12:00:00 19,4 9,0 21,7 16,8 18,6 10 6 21 11 ONO 1020,0 20 60 0,0
11.10.2019 11:00:00 16,6 8,0 16,8 16,9 18,6 15 8 24 13 ONO 1020,5 20 60 0,2
11.10.2019 10:00:00 13,7 8,1 13,4 17,0 18,6 10 5 18 10 ONO 1020,7 20 60 0,0
11.10.2019 09:00:00 10,2 8,1 5,2 17,1 18,6 4 2 8 5 O 1020,5 20 38 0,0
11.10.2019 08:00:00 6,8 5,7 4,5 17,2 18,6 6 4 9 5 O 1020,7 20 0 0,0
11.10.2019 07:00:00 6,9 5,8 4,9 17,2 18,6 5 3 10 5 O 1020,8 20 0 0,0
11.10.2019 06:00:00 7,3 6,2 5,0 17,3 18,6 6 3 9 5 O 1021,4 20 0 0,0
11.10.2019 05:00:00 8,8 7,2 5,6 17,4 18,7 7 4 9 5 ONO 1021,9 20 0 0,0
11.10.2019 04:00:00 7,6 5,7 5,7 17,4 18,7 4 2 9 5 ONO 1022,4 20 0 0,0
11.10.2019 03:00:00 8,4 7,2 6,5 17,5 18,6 7 4 10 5 ONO 1023,1 20 0 0,0
11.10.2019 02:00:00 9,1 7,5 7,0 17,5 18,7 5 3 10 5 ONO 1023,1 20 0 0,0
11.10.2019 01:00:00 9,5 7,4 7,2 17,5 18,7 6 3 9 5 ONO 1023,4 20 0 0,0
11.10.2019 00:00:00 9,5 7,4 7,9 17,6 18,7 4 2 7 4 O 1023,5 20 0 0,0
10.10.2019 23:00:00 10,7 8,6 8,1 17,6 18,7 3 2 7 4 ONO 1023,4 20 0 0,0
10.10.2019 22:00:00 11,7 8,7 9,1 17,6 18,7 4 2 6 3 O 1023,1 20 0 0,0
10.10.2019 21:00:00 12,8 9,1 10,2 17,5 18,7 0 0 4 2 N 1022,9 20 0 0,0
10.10.2019 20:00:00 15,0 8,9 12,4 17,4 18,7 3 2 8 5 ZZO 1022,6 20 0 0,0
10.10.2019 19:00:00 18,8 9,3 18,1 17,4 18,7 6 3 12 7 NO 1022,2 20 39 0,0
10.10.2019 18:00:00 19,8 7,8 20,6 17,3 18,7 4 2 14 8 N 1022,2 20 18 0,0
10.10.2019 17:00:00 20,6 9,5 21,6 17,3 18,7 8 4 17 9 W 1022,3 20 43 0,0
10.10.2019 16:00:00 19,1 9,8 20,6 17,2 18,7 10 6 21 11 NW 1022,7 20 13 0,0
10.10.2019 15:00:00 19,1 9,6 20,0 17,1 18,7 7 4 21 11 WNW 1022,9 20 18 0,0
10.10.2019 14:00:00 17,8 10,4 18,6 17,2 18,7 8 4 28 15 WNW 1023,7 20 6 0,0
10.10.2019 13:00:00 18,6 11,2 18,6 17,2 18,7 12 6 20 11 W 1023,9 20 47 0,0
10.10.2019 12:00:00 15,7 11,5 16,2 17,2 18,7 5 3 12 6 W 1024,7 20 30 0,0
10.10.2019 11:00:00 13,3 11,2 14,7 17,2 18,7 4 2 9 5 NNW 1025,2 18 0 0,0
10.10.2019 10:00:00 12,7 11,4 12,7 17,3 18,7 2 1 5 3 WZW 1025,0 18 0 0,0
10.10.2019 09:00:00 11,7 10,9 9,3 17,3 18,7 2 1 4 2 ZZW 1024,3 19 13 0,2
10.10.2019 08:00:00 11,1 10,3 9,4 17,4 18,7 0 0 4 2 N 1024,0 17 0 0,0
10.10.2019 07:00:00 11,0 10,1 10,2 17,4 18,7 0 0 3 2 N 1023,8 20 0 0,0
10.10.2019 06:00:00 11,2 10,1 10,3 17,5 18,7 0 0 3 2 N 1023,5 20 0 0,0
10.10.2019 05:00:00 11,7 10,6 11,2 17,5 18,7 3 2 7 4 N 1023,2 20 0 0,0
10.10.2019 04:00:00 11,7 10,8 9,5 17,6 18,8 2 1 7 4 WNW 1022,7 20 0 0,0
10.10.2019 03:00:00 11,3 10,0 8,5 17,6 18,7 3 1 7 4 ZZW 1022,9 20 0 0,0
10.10.2019 02:00:00 12,0 10,6 10,4 17,7 18,7 0 0 8 4 N 1022,8 20 0 0,0
10.10.2019 01:00:00 12,7 11,1 9,8 17,7 18,8 8 4 10 6 ZZW 1022,8 20 0 0,0
10.10.2019 00:00:00 11,7 10,3 9,6 17,7 18,8 4 2 8 4 WZW 1022,9 20 0 0,0
09.10.2019 23:00:00 12,3 10,2 10,8 17,7 18,8 4 2 8 4 WZW 1022,7 20 0 0,0
09.10.2019 22:00:00 13,6 10,9 12,4 17,7 18,8 5 3 16 9 WZW 1022,2 20 0 0,0
09.10.2019 21:00:00 15,1 12,2 13,9 17,7 18,8 8 4 15 8 ZW 1021,6 20 0 0,0

tt = temperatuur
td = dauwpunt
tt 5cm = temperatuur 5cm
tt -20cm = temperatuur -20cm
tt -100cm = temperatuur -100cm
ff = windsnelheid
fx = windstoten
dd = windrichting
ppp = luchtdruk
vv = zicht
sd = Zonneschijnduur
rr = neerslag

Weerstations in de omgeving